DW4933 Weather Reports


time (UTC)temp
C
wind
direction
speed
KPH
gust
KPH
rain 1hr
cm
rain 24hr
cm
rain mn
cm
humidity
%
barometer
mb
20260509213027 14 252 0.0 0.0 0.00 0.89 0.89 79 1007.8
20260509211523 13 284 0.0 0.0 0.00 0.89 0.89 84 1008.0
20260509210027 12 95 0.0 0.0 0.00 0.89 0.89 86 1008.2
20260509204519 12 102 0.0 0.0 0.00 0.89 0.89 86 1008.2
20260509203017 12 281 0.0 0.0 0.03 0.89 0.89 88 1008.5
20260509201514 12 103 0.0 0.0 0.03 0.89 0.89 89 1008.5
20260509200012 11 44 0.0 0.0 0.05 0.89 0.89 91 1008.6
20260509194517 11 259 0.0 0.0 0.13 0.89 0.89 91 1008.8
20260509193008 11 280 0.0 0.0 0.15 0.86 0.86 92 1009.0
20260509191507 11 247 0.0 0.0 0.18 0.86 0.86 91 1009.1
20260509190009 11 278 0.0 0.0 0.18 0.84 0.84 91 1009.1
20260509184506 11 29 0.0 0.0 0.13 0.76 0.76 90 1009.2
20260509183006 11 97 0.0 0.0 0.08 0.71 0.71 90 1009.1
20260509181504 11 109 0.0 0.0 0.05 0.69 0.69 89 1009.2
20260509180003 11 204 0.0 0.0 0.03 0.66 0.66 88 1009.1
20260509174504 11 265 0.0 0.0 0.00 0.64 0.64 88 1009.1
20260509173001 11 256 0.0 0.0 0.00 0.64 0.64 88 1009.1
20260509171500 11 255 0.0 0.0 0.00 0.64 0.64 88 1009.1
20260509170103 11 263 0.0 0.0 0.03 0.64 0.64 88 1009.1
20260509164558 11 292 0.0 0.0 0.03 0.64 0.64 89 1009.1
20260509163110 11 274 0.0 0.0 0.03 0.64 0.64 89 1009.2
20260509161601 11 278 0.0 0.0 0.03 0.64 0.64 90 1009.4
20260509160053 11 291 0.0 0.0 0.03 0.61 0.61 90 1009.6
20260509154554 11 263 0.0 0.0 0.05 0.61 0.61 90 1009.7
20260509153047 10 153 0.0 0.0 0.10 0.61 0.61 90 1009.9
20260509151550 10 101 0.0 0.0 0.13 0.61 0.61 91 1010.1
20260509150040 10 287 0.0 0.0 0.13 0.58 0.58 92 1010.4
20260509144539 10 281 0.0 0.0 0.13 0.56 0.56 93 1010.5
20260509143044 10 262 0.0 0.0 0.08 0.51 0.51 94 1010.5
20260509141540 10 262 0.0 0.0 0.08 0.48 0.48 94 1010.6
20260509140030 10 164 0.0 0.0 0.08 0.46 0.46 95 1010.5
20260509134528 9 163 0.0 0.0 0.08 0.43 0.43 95 1010.5
20260509133024 9 119 0.0 0.0 0.08 0.43 0.43 95 1010.5
20260509131524 9 119 0.0 0.0 0.05 0.41 0.41 95 1010.7
20260509130021 9 119 0.0 0.0 0.03 0.38 0.38 95 1010.8
20260509124519 -17 0.0 0.0 0.00 0.36 0.36 1010.8
20260509123014 -17 0.0 0.0 0.00 0.36 0.36 1010.9
20260509121510 -17 0.0 0.0 0.00 0.36 0.36 1010.9
20260509120007 -17 0.0 0.0 0.03 0.36 0.36 1011.2
20260509114503 -17 0.0 0.0 0.08 0.36 0.36 1011.1
20260509113122 -17 0.0 0.0 0.13 0.36 0.36 1011.0
20260509111601 -17 0.0 0.0 0.20 0.36 0.36 1011.0
20260509110050 8 120 0.0 0.0 0.23 0.36 0.36 94 1011.1
20260509104557 8 119 0.0 0.0 0.15 0.28 0.28 95 1011.1
20260509103056 8 119 0.0 0.0 0.08 0.20 0.20 95 1011.2
20260509101547 8 119 0.0 0.0 0.03 0.15 0.15 95 1011.0
20260509100105 8 117 0.0 0.0 0.00 0.13 0.13 95 1010.9
20260509094551 7 95 0.0 0.0 0.00 0.13 0.13 95 1010.8
20260509093044 7 95 0.0 0.0 0.00 0.13 0.13 95 1010.9
20260509091546 7 95 0.0 0.0 0.00 0.13 0.13 94 1010.8
20260509090039 7 81 0.0 0.0 0.00 0.13 0.13 94 1011.0
20260509084537 7 82 0.0 0.0 0.03 0.13 0.13 94 1011.1
20260509083042 7 287 0.0 0.0 0.03 0.13 0.13 94 1011.2
20260509081534 7 287 0.0 0.0 0.03 0.13 0.13 93 1011.4
20260509080039 7 287 0.0 0.0 0.05 0.13 0.13 93 1011.7
20260509074531 7 287 0.0 0.0 0.03 0.10 0.10 92 1011.5
20260509073029 6 287 0.0 0.0 0.05 0.10 0.10 92 1011.3
20260509071530 6 287 0.0 0.0 0.08 0.10 0.10 91 1011.5
20260509070028 6 287 0.0 0.0 0.05 0.08 0.08 90 1011.4
20260509064530 7 276 0.0 0.0 0.08 0.08 0.08 89 1011.6
20260509063023 7 276 0.0 0.0 0.05 0.05 0.05 87 1011.8
20260509061535 7 276 0.0 0.0 0.03 0.03 0.03 85 1011.9
20260509060020 7 276 0.0 0.0 0.03 0.03 0.03 83 1012.1
20260509054519 7 276 0.0 0.0 0.00 0.00 0.00 81 1012.2
20260509053030 7 276 0.0 0.0 0.00 0.00 0.00 80 1012.2
20260509051517 7 276 0.0 0.0 0.00 0.00 0.00 79 1012.1
20260509050017 7 276 0.0 0.0 0.00 0.00 0.00 78 1012.0
20260509044514 7 286 0.0 0.0 0.00 0.00 0.00 78 1012.2
20260509043011 7 95 0.0 0.0 0.00 0.00 0.00 78 1012.4
20260509041509 7 95 0.0 0.0 0.00 0.00 0.00 79 1012.4
20260509040007 6 95 0.0 0.0 0.00 0.00 0.00 78 1012.5
20260509034506 6 95 0.0 0.0 0.00 0.00 0.00 78 1012.5
20260509033005 6 95 0.0 0.0 0.00 0.00 0.00 78 1012.4
20260509031505 6 95 0.0 0.0 0.00 0.00 0.00 77 1012.3
20260509030005 6 95 0.0 0.0 0.00 0.00 0.00 76 1012.5
20260509024504 7 95 0.0 0.0 0.00 0.00 0.00 74 1012.6
20260509023004 7 95 0.0 0.0 0.00 0.00 0.00 73 1012.2
20260509021503 7 95 0.0 0.0 0.00 0.00 0.00 71 1012.4
20260509020003 8 95 0.0 0.0 0.00 0.00 0.00 68 1012.5
20260509014506 9 95 0.0 0.0 0.00 0.00 0.00 59 1012.4
20260509013002 9 116 0.0 0.0 0.00 0.00 0.00 59 1012.3
20260509011501 10 116 0.0 0.0 0.00 0.00 0.00 60 1012.2
20260509010001 10 116 0.0 0.0 0.00 0.00 0.00 58 1012.0
20260509004600 11 116 0.0 0.0 0.00 0.00 0.00 53 1011.6
20260509003108 11 113 0.0 0.0 0.00 0.00 0.00 51 1011.5
20260509001559 10 102 0.0 0.0 0.00 0.00 0.00 55 1011.4
20260508234558 11 102 0.0 0.0 0.00 0.00 0.00 51 1011.1
20260508233106 12 102 0.0 0.0 0.00 0.00 0.00 48 1010.8
20260508231634 12 102 0.0 0.0 0.00 0.00 0.00 47 1010.9
20260508224608 13 82 0.0 0.0 0.00 0.00 0.00 44 1010.9
20260508223054 13 84 0.0 0.0 0.00 0.00 0.00 44 1010.9
20260508221554 13 109 0.0 0.0 0.00 0.00 0.00 45 1010.8
20260508220053 13 103 0.0 0.0 0.00 0.00 0.00 44 1010.8
20260508214626 15 296 0.0 0.0 0.00 0.00 0.00 39 1010.9